Regional Weather Roundup
Issued by NWS

Home | Current Version | Previous Version | Text Only | Print | Product List | Glossary On
Versions: 1 2 3 4 5 6 7 8 9 10 11 12 13 14 15 16 17 18 19 20 21 22 23 24 25 26 27 28 29 30 31 32 33 34 35 36 37 38 39 40 41 42 43 44 45 46 47 48 49 50
000
ASUS43 KDTX 080910
RWRMI
MICHIGAN HOURLY REGIONAL WEATHER ROUNDUP
NATIONAL WEATHER SERVICE DETROIT/PONTIAC MI
400 AM EST MON FEB 08 2016

NOTE: "FAIR" INDICATES FEW OR NO CLOUDS BELOW 12,000 FEET WITH NO
SIGNIFICANT WEATHER AND/OR OBSTRUCTION TO VISIBILITY.

MIZ047>049-052>055-059>063-066>070-074>076-081>083-081000-
SOUTHEAST LOWER MICHIGAN

CITY           SKY/WX    TMP DP  RH WIND       PRES   REMARKS
ADRIAN         MOCLDY    33  30  88 W3        29.65F
ALMA           CLEAR     33  32  96 SW8       29.62F WCI  26
ANN ARBOR      CLOUDY    34  31  88 CALM      29.63F
BAD AXE        CLOUDY    37  32  82 CALM      29.62F
CARO           CLOUDY    36  32  87 CALM      29.62S
DETROIT CITY   CLOUDY    41  31  67 SW6       29.64F
DETROIT        CLOUDY    40  32  73 SW7       29.65F
FLINT          CLOUDY    39  31  72 SW5       29.63F
GROSSE ILE     CLOUDY    39  34  81 SW5       29.63F
HILLSDALE      CLOUDY    33  30  89 CALM      29.62F
HOWELL         CLOUDY    35  31  86 CALM      29.63F

CITY           SKY/WX    TMP DP  RH WIND       PRES   REMARKS
JACKSON        PTCLDY    31  27  85 SW3       29.63F
LAMBERTVILLE   MOCLDY    37  32  81 W5        29.66F WCI  34
LANSING        CLOUDY    31  27  85 S5        29.63F WCI  26
LAPEER         CLOUDY    38  32  78 W3        29.63S
MASON          MOCLDY    32  29  88 CALM      29.63F
MONROE         CLOUDY    37  32  81 W5        29.64F WCI  34
MT. CLEMENS    CLOUDY    37  32  83 S5        29.62F WCI  33
PONTIAC        CLOUDY    38  31  76 W6        29.62F WCI  33
PORT HOPE        N/A     38  31  76 SW3       29.61F
PORT HURON     CLOUDY    37  32  81 S3        29.64F
TRI CITIES     MOCLDY    37  30  75 S5        29.62F WCI  33
MIDLAND        FAIR      30  28  94 CALM      29.61S
TROY           CLOUDY    41  32  70 SW3       29.65F
SAGINAW HB     CLOUDY    36  32  87 S7        29.61F WCI  30
$$
MIZ043>046-050>051-056>058-064>065-071>073-077>080-081000-
SOUTHWEST LOWER MICHIGAN

CITY           SKY/WX    TMP DP  RH WIND       PRES   REMARKS
BATTLE CREEK   CLEAR     28  25  88 SW6       29.63F WCI  22
BENTON HARBOR  CLEAR     31  28  89 S5        29.63F WCI  26
BIG RAPIDS     PTCLDY    31  29  94 SW5       29.58F WCI  26
COLDWATER      PTCLDY    32  31  95 SW3       29.63F
FREMONT        FAIR      30  30 100 CALM      29.59F
HOLLAND        CLEAR     30  27  88 SW6       29.62F WCI  24
GRAND RAPIDS   CLEAR     30  27  88 SW6       29.61F WCI  24
IONIA          FAIR      31  28  90 SW5       29.61F WCI  26
KALAMAZOO      CLEAR     31  26  82 S5        29.63F WCI  26
LUDINGTON      CLOUDY    35  32  89 S6        29.59F WCI  30
MARSHALL       PTCLDY    29  28  93 CALM      29.62F
MOUNT PLEASANT MOCLDY    34  29  83 SW5       29.59F WCI  30
MUSKEGON       CLEAR     33  27  78 SW5       29.61F WCI  29
SOUTH HAVEN    CLEAR     33  30  89 SW3       29.63F
$$
MIZ016>042-081000-
NORTHERN LOWER MICHIGAN

CITY           SKY/WX    TMP DP  RH WIND       PRES   REMARKS
ALPENA         MOCLDY    32  28  85 CALM      29.60F
BEAVER ISLAND  CLOUDY    33  32  97 CALM      29.55F FOG
BELLAIRE       CLEAR     30  29  96 CALM      29.59R FOG
CADILLAC       MOCLDY    31  29  94 CALM      29.55F
CHARLEVOIX     MOCLDY    34  32  93 SE3       29.60S
FRANKFORT      CLOUDY    33  31  93 CALM      29.57S
GAYLORD        CLEAR     28  26  92 CALM      29.56F FOG
GRAYLING       FOG       23  22  93 CALM      29.58F VSB 1/4
HARBOR SPRINGS MOCLDY    33  31  93 CALM      29.57F
HOUGHTON LAKE  MOCLDY    25  24  96 CALM      29.58S
MANISTEE       CLOUDY    30  27  86 S3        29.58S
OSCODA         MOCLDY    32  31  94 SW3       29.60F
PELLSTON       CLOUDY    34  31  88 CALM      29.58S
ROGERS CITY    PTCLDY    33  28  83 S5        29.60F WCI  28
TRAVERSE CITY  MOCLDY    34  29  82 S3        29.56S
$$
MIZ007>008-015-081000-
EASTERN UPPER MICHIGAN

CITY           SKY/WX    TMP DP  RH WIND       PRES   REMARKS
KINROSS        CLOUDY    34  34 100 SE7       29.57S WCI  28
MACKINAC ISLAN CLOUDY    34  31  90 SE6       29.56F WCI  29
NEWBERRY       CLOUDY    33  32  98 SE5       29.54S FOG     WCI  28
S. S. MARIE    CLOUDY    34  31  88 E5        29.57F FOG     WCI  30
MUNISING         N/A     33  31  92 CALM      29.53R
$$
MIZ004>006-011>014-085-081000-
CENTRAL UPPER MICHIGAN

CITY           SKY/WX    TMP DP  RH WIND       PRES   REMARKS
MANISTIQUE     CLOUDY    33  32  97 CALM      29.54S
ESCANABA       CLOUDY    32  30  93 CALM      29.54R
MENOMINEE      CLOUDY    32  27  80 CALM      29.54S
SAWYER-GWINN   LGT SNOW  31  31 100 CALM      29.50S
$$
MIZ001>003-009>011-084-081000-
WESTERN UPPER MICHIGAN

CITY           SKY/WX    TMP DP  RH WIND       PRES   REMARKS
IRON MOUNTAIN  FOG       27  27 100 CALM      29.50S VSB 1/2
HOUGHTON       LGT SNOW  24  19  81 N14G24    29.54S WCI  12
COPPER HARBOR    N/A     28  25  88 NE22      29.57S WCI  14
IRONWOOD       CLOUDY    25  21  86 N15       29.58R WCI  12
$$

ABBREVIATIONS USED IN REMARKS
   TC - TEMPERATURE IN CELSIUS
  WCI - WIND CHILL INDEX
   HX - HEAT INDEX
  VSB - VISIBILITY




USA.gov is the U.S. government's official web portal to all federal, state and local government web resources and services.